Home   Weather   Canton   Past weeks

Flag for USA Past Weather in Canton, Ohio, USA — Yesterday and Last 2 Weeks

Now
34 °F

Overcast.


Feels Like: 31 °F
Forecast: 30 / 40 °F
Wind: 3 mph from Southeast

Location: Akron-Canton Regional Airport

Current Time: Dec 4, 2016 at 9:23:02 am

Latest Report: Dec 4, 2016 at 8:51 am


Visibility: 8 mi

Pressure: 30.26 "Hg

Humidity: 73%

Dew Point: 26 °F

Location of CantonLocation

Past Weather in Canton — Graph

°F

Canton Temperature Yesterday

Maximum temperature yesterday: 38 °F (at 1:51 pm)
Minimum temperature yesterday: 34 °F (at 7:51 am)
Average temperature yesterday: 36 °F

High & Low Weather Summary for the Past Weeks

 TemperatureHumidityPressure
High60 °F (Nov 29, 2:51 pm)93% (Nov 24, 6:51 am)30.38 "Hg (Nov 24, 6:51 am)
Low23 °F (Nov 22, 7:51 am)31% (Nov 28, 9:51 pm)29.50 "Hg (Nov 30, 6:51 pm)
Average39 °F72%30.08 "Hg
* Reported Nov 19 7:51 am — Dec 4 7:51 am, Canton, Weather by CustomWeather, © 2016

Note: Actual official high and low records may vary slightly from our data, if they occured in-between our weather recording intervals... More about our weather records

Advertising

Canton Weather History for the Previous 24 Hours

Scroll right to see more
 ConditionsComfort  
Time TempWeatherWind HumidityBarometerVisibility
7:51 am
Sun, Dec 4
34 °FOvercast.No wind73%30.26 "Hg9 mi
6:51 am34 °FOvercast.No wind73%30.27 "Hg10 mi
5:51 am34 °FMostly cloudy.No wind67%30.27 "Hg10 mi
4:51 am34 °FPassing clouds.3 mph70%30.27 "Hg10 mi
3:51 am35 °FOvercast.3 mph67%30.29 "Hg10 mi
2:51 am36 °FOvercast.No wind59%30.30 "Hg10 mi
1:51 am36 °FOvercast.3 mph59%30.30 "Hg10 mi
12:51 am35 °FOvercast.3 mph64%30.31 "Hg10 mi
11:51 pm
Sat, Dec 3
36 °FOvercast.No wind64%30.31 "Hg10 mi
10:51 pm36 °FOvercast.5 mph64%30.32 "Hg10 mi
9:51 pm36 °FOvercast.3 mph64%30.32 "Hg10 mi
8:51 pm36 °FOvercast.5 mph67%30.32 "Hg10 mi
7:51 pm37 °FOvercast.3 mph62%30.32 "Hg10 mi
6:51 pm37 °FOvercast.5 mph65%30.32 "Hg10 mi
5:51 pm37 °FOvercast.3 mph65%30.32 "Hg10 mi
4:51 pm37 °FOvercast.8 mph65%30.33 "Hg10 mi
3:51 pm37 °FMore clouds than sun.8 mph65%30.32 "Hg10 mi
2:51 pm38 °FOvercast.8 mph68%30.32 "Hg10 mi
1:51 pm38 °FMostly cloudy.7 mph70%30.29 "Hg10 mi
12:51 pm37 °FMostly cloudy.8 mph73%30.29 "Hg10 mi
11:51 am37 °FMostly cloudy.7 mph76%30.30 "Hg10 mi
10:51 am37 °FLight snow. Mostly cloudy.7 mph79%30.33 "Hg6 mi
9:51 am35 °FLight snow. Mostly cloudy.10 mph82%30.34 "Hg4 mi
Weather by CustomWeather, © 2016

See weather overviewHow to use our weather pages